Regional Weather Roundup
Issued by NWS

Home | Current Version | Previous Version | Graphics & Text | Print | Product List | Glossary On
Versions: 1 2 3 4 5 6 7 8 9 10 11 12 13 14 15 16 17 18 19 20 21 22 23 24 25 26 27 28 29 30 31 32 33 34 35 36 37 38 39 40 41 42 43 44 45 46 47 48 49 50
000
ASUS43 KMKX 181521
RWRWI

WISCONSIN REGIONAL WEATHER ROUNDUP
NATIONAL WEATHER SERVICE MILWAUKEE/SULLIVAN WI
1000 AM CDT FRI AUG 18 2017

NOTE: "FAIR" INDICATES FEW OR NO CLOUDS BELOW 12,000 FEET WITH NO
SIGNIFICANT WEATHER AND/OR OBSTRUCTIONS TO VISIBILITY.

WIZ001-002-006>008-014>016-023>028-181600-
NORTHWEST WISCONSIN

CITY           SKY/WX    TMP DP  RH WIND       PRES   REMARKS
SUPERIOR ARPT    N/A     62  59  88 SW3       29.84F
ASHLAND        CLOUDY    64  59  83 W5        29.84S
HAYWARD        MOSUNNY   64  56  75 NW5       29.87S
SIREN          CLOUDY    62  60  93 CALM      29.87S
CUMBERLAND     CLOUDY    64  59  82 N5        29.87S
RICE LAKE      CLOUDY    68  58  71 NW7       29.87S
CHETEK         CLOUDY    68  62  78 MISG      29.86S
LADYSMITH      MOSUNNY   66  58  75 NW10      29.88R
EAU CLAIRE     CLOUDY    68  60  75 W5        29.85S
MENOMONIE      PTSUNNY   69  61  76 NW9       29.86F
NEW RICHMOND   CLOUDY    68  61  79 W7        29.88S
OSCEOLA        MOSUNNY   66  65  99 NW3       29.91S
$$

WIZ003>005-009-010-017-018-181600-
NORTH CENTRAL WISCONSIN

CITY           SKY/WX    TMP DP  RH WIND       PRES   REMARKS
MANITOWISH WTR CLOUDY    60  60 100 N8        29.83R
ARBOR VITAE    CLOUDY    62  59  90 NW6       29.82R
WOODRUFF       CLOUDY    62  59  90 NW6       29.82R
RHINELANDER    CLOUDY    62  60  93 VRB5      29.82R
EAGLE RIVER    CLOUDY    62  57  85 NW13G18   29.81R
LAND O LAKES   CLOUDY    62  57  83 NW7       29.82R
PHILLIPS       CLOUDY    62  59  91 NW7       29.85R
TOMAHAWK         N/A     61  57  84 W9        29.84R
MEDFORD        CLOUDY    63  58  82 NW9       29.86R
MERRILL        CLOUDY    64  61  88 NW8       29.83S
$$

WIZ029-030-035-036-043>047-181600-
CENTRAL WISCONSIN

CITY           SKY/WX    TMP DP  RH WIND       PRES   REMARKS
WAUSAU         CLOUDY    63  58  83 NW10      29.82R
MOSINEE        CLOUDY    63  59  88 NW10      29.85R
MARSHFIELD     CLOUDY    66  57  72 NW14      29.85R
STEVENS POINT  CLOUDY    63  57  83 NW5       29.85R
WAUPACA        CLOUDY    69  59  69 W10       29.83R
WAUTOMA        CLOUDY    67  58  72 NW15G23   29.84S
WISC RAPIDS    CLOUDY    67  59  75 NW9       29.86R
CAMP DOUGLAS   MOSUNNY   70  61  73 NW13G21   29.86S
$$

WIZ011>013-019>022-031-037>040-048>050-181600-
NORTHEAST WISCONSIN

CITY           SKY/WX    TMP DP  RH WIND       PRES   REMARKS
ANTIGO         CLOUDY    62  58  87 NW12      29.82R
SHAWANO        CLOUDY    67  59  74 NW7       29.80R
OCONTO         CLOUDY    67  58  73 NW8G17    29.76R
STURGEON BAY   CLOUDY    66  59  78 W12       29.75R
GREEN BAY      CLOUDY    68  62  81 W13G24    29.78R
MANITOWOC      PTSUNNY   70  57  64 W20G25    29.79R
APPLETON       PTSUNNY   66  55  68 NW14G21   29.80R
CLINTONVILLE   CLOUDY    66  55  68 NW12      29.81R
OSHKOSH        CLOUDY    67  59  75 W13       29.81R
$$

WIZ032>034-041-042-053>061-181600-
SOUTHWEST WISCONSIN

CITY           SKY/WX    TMP DP  RH WIND       PRES   REMARKS
LA CROSSE      SUNNY     73  59  61 NW6       29.87S
SPARTA         SUNNY     69  59  69 NW8       29.87F
VIROQUA        SUNNY     68  61  76 NW8       29.90S
BOSCOBEL       PTSUNNY   71  60  68 VRB5      29.89R
PRAIRIE DU CHI MOSUNNY   70  57  64 NW5       29.89S
PLATTEVILLE    MOSUNNY   68  64  85 NW9       29.91R
$$

WIZ056-057-062-063-064-067-068-181600-
SOUTH CENTRAL WISCONSIN

CITY           SKY/WX    TMP DP  RH WIND       PRES   REMARKS
REEDSBURG      CLOUDY    68  59  74 NW10G20   29.86F
BARABOO/DELLS  CLOUDY    66  56  68 NW9G17    29.86F
LONE ROCK      CLOUDY    69  60  73 W12G17    29.87S
MINERAL POINT  CLOUDY    70  63  78 NW10      29.90R
MADISON        PTSUNNY   69  58  67 NW12G21   29.86S
MIDDLETON      PTSUNNY   70  60  70 NW10      29.87F
WATERTOWN      CLOUDY    66  60  80 W10G21    29.86R
MONROE         PTSUNNY   68  61  77 NW9G16    29.89S
JANESVILLE     PTSUNNY   72  61  68 NW16G24   29.86R
$$

WIZ051-052-058>065-066-070>072-181600-
SOUTHEAST WISCONSIN

CITY           SKY/WX    TMP DP  RH WIND       PRES   REMARKS
MILWAUKEE      CLOUDY    69  59  70 NW10      29.83R
WAUKESHA       CLOUDY    64  57  77 W12G17    29.85S
MILWAUKEE/TIMM CLOUDY    66  55  68 W9        29.84R
RACINE         CLOUDY    69  60  73 W13       29.86R
KENOSHA        CLOUDY    69  59  70 NW10      29.85R
FOND DU LAC    CLOUDY    67  57  70 W14       29.82R
SHEBOYGAN      CLOUDY    67  61  81 W8        29.81R
WEST BEND      CLOUDY    64  59  82 W9        29.83R
JUNEAU         CLOUDY    65  59  80 W7        29.86S
$$

LSZ147-162-181600-
LAKE SUPERIOR

STATION/POSITION TIME  TEMP    WIND        PRES    WAVE
                       AIR SEA DIR/SP/G            HT/PER
                 (UTC) (F)     (DEG/KT/KT) (MB)    (FT/S)
W MID LAKE BUOY  1450   61 60  290/  8/ 10 1008.3R   2/ 5
DEVILS ISLAND    1500   63     270/  5/  6 1010.0R
SAXON HARBOR     1440   64     300/ 10/ 12 1009.8R
$$

LMZ867-665-643>646-181600-
LAKE MICHIGAN

STATION/POSITION TIME  TEMP    WIND        PRES    WAVE
                       AIR SEA DIR/SP/G            HT/PER
                 (UTC) (F)     (DEG/KT/KT) (MB)    (FT/S)
S GREEN BAY BUOY 1500   68 71  290/ 14/ 17 1007.6
N MID LAKE BUOY  1450   65 67  310/ 17/ 19 1005.2R   4/ 5
NORTHPORT PIER   1440   67     300/ 11/ 19 1005.8R
KEWAUNEE LAKESHO 1500   67     280/  7/ 11 1007.2
SHEBOYGAN LAKESH 1500   67     290/ 12/ 17 1008.7R
PORT WASHINGTON  1440   69     290/  7/ 15 1010.5S
ATWATER BUOY     1409   68 70  270/ 14/ 19 1010.0
MILWAUKEE LAKESH 1500   68     280/ 11/ 15   N/A
S MID LAKE BUOY  1450   69 71  320/ 17/ 19 1009.5R   4/ 5
KENOSHA   LAKESH 1500   69     310/ 11/ 17 1010.5
$$

TC  - TEMPERATURE IN CELSIUS
VSB - VISIBILITY IN STATUTE MILES
WCI - WIND CHILL INDEX
HX  - HEAT INDEX





USA.gov is the U.S. government's official web portal to all federal, state and local government web resources and services.